Flag for Germany Weather past 2 weeks in Neumünster, Schleswig-Holstein, Germany

Now
49 °F

Passing clouds.


Feels Like: 49 °F
Forecast: 43 / 58 °F
Wind: 2 mph from West

Location: Itzehoe

Current Time: May 29, 2015 at 12:44:37 AM

Latest Report: May 28, 2015 at 10:00 PM


Visibility: 25 mi

Pressure: 29.88 "Hg

Humidity: 77%

Dew point: 42 °F

Location of NeumünsterLocation

Historic Weather in Neumünster — Graph

°F

Neumünster temperature yesterday

Maximum temperature yesterday: 59 °F (at 1:00 PM)
Minimum temperature yesterday: 49 °F (at 10:00 PM)
Average temperature yesterday: 54 °F

Past Weeks' High & Low Weather Summary

 TemperatureHumidityPressure
High65 °F (May 22, 4:00 PM)100% (May 22, 3:00 AM)30.29 "Hg (May 22, 3:00 AM)
Low38 °F (May 24, 4:00 AM)45% (May 24, 6:00 PM)29.57 "Hg (May 19, 1:00 AM)
Average50 °F77%30.01 "Hg
* Reported May 13 10:00 PM — May 28 10:00 PM, Neumünster, Weather by CustomWeather, © 2015

Note: Actual official high and low records may vary slightly from our data, if they occured in-between our weather recording intervals... More about our weather records

Advertising

Neumünster weather history for previous 24 hours

 ConditionsComfort  
Time TempWeatherWind HumidityBarometerVisibility
10:00 PM
Thu, May 28
49 °FPassing clouds.2 mph77%29.88 "Hg25 mi
9:00 PM51 °FSunny.3 mph74%29.87 "Hg22 mi
7:00 PM55 °FOvercast.5 mph69%29.85 "Hg17 mi
6:00 PM55 °FPartly sunny.7 mph64%29.84 "Hg12 mi
4:00 PM55 °FScattered clouds.3 mph74%29.83 "Hg15 mi
3:00 PM55 °FOvercast.5 mph76%29.83 "Hg14 mi
1:00 PM59 °FPartly sunny.7 mph75%29.80 "Hg7 mi
12:00 PM56 °FOvercast.6 mph78%29.81 "Hg9 mi
10:00 AM57 °FOvercast.5 mph70%29.82 "Hg9 mi
9:00 AM56 °FOvercast.6 mph65%29.83 "Hg10 mi
7:00 AM53 °FOvercast.3 mph68%29.85 "Hg9 mi
6:00 AM53 °FOvercast.5 mph69%29.86 "Hg9 mi
4:00 AM52 °FOvercast.3 mph74%29.91 "Hg11 mi
3:00 AM53 °FPassing clouds.5 mph69%29.93 "Hg14 mi
1:00 AM52 °FPassing clouds.1 mph74%29.98 "Hg19 mi
12:00 AM52 °FOvercast.3 mph72%30.01 "Hg22 mi
Weather by CustomWeather, © 2015

See weather overviewHow to use our weather pages